This demonstration page uses our WeatherBlox Daily Observations layout. Learn more.

Hourly Observations for November 20, 2018

Temp ( °F °C ) Dew Point ( °F °C ) Humidity (%) Winds ( mph kmh ) Pressure ( in mb ) Visibility ( mi km ) Precip ( " mm )
12:10 am 00:10 Cloudy 33 0.5 32 -0.2 95 95 Calm 30.36 1028 10 16.09344 0 0
12:35 am 00:35 Cloudy 33 0.5 32 -0.1 96 96 Calm 30.36 1028 10 16.09344 0 0
12:55 am 00:55 Cloudy 33 0.7 32 0 95 95 SSW 3 6 30.36 1028 10 16.09344 0 0
1:15 am 01:15 Cloudy 33 0.7 32 0 95 95 SW 3 6 30.36 1028 10 16.09344 0 0
1:35 am 01:35 Cloudy 33 0.7 32 0 95 95 Calm 30.36 1028 10 16.09344 0 0
1:55 am 01:55 Cloudy 33 0.8 32 0 94 94 Calm 30.36 1028 10 16.09344 0 0
2:15 am 02:15 Cloudy 33 0.8 32 0 94 94 SSW 5 7 30.36 1028 10 16.09344 0 0
2:35 am 02:35 Cloudy 32 0.2 31 -0.5 95 95 Calm 30.36 1028 10 16.09344 0 0
2:55 am 02:55 Partly Cloudy 32 0 31 -0.7 95 95 SW 7 11 30.36 1028 10 16.09344 0 0
3:15 am 03:15 Clear 31 -0.5 29 -1.5 93 93 SW 6 9 30.33 1027 10 16.09344 0 0
3:35 am 03:35 Clear 30 -1.2 28 -2 94 94 SW 3 6 30.33 1027 10 16.09344 0 0
3:55 am 03:55 Clear 29 -1.7 28 -2.3 96 96 SW 3 6 30.36 1028 10 16.09344 0 0
4:15 am 04:15 Clear 30 -1.2 29 -1.9 95 95 SW 6 9 30.33 1027 10 16.09344 0 0
4:35 am 04:35 Clear 31 -0.6 29 -1.7 92 92 SW 6 9 30.33 1027 10 16.09344 0 0
4:55 am 04:55 Clear 29 -1.5 28 -2.5 93 93 SW 7 11 30.36 1028 10 16.09344 0 0
5:15 am 05:15 Clear 30 -1.3 28 -2.3 93 93 SW 6 9 30.33 1027 10 16.09344 0 0
5:35 am 05:35 Clear 29 -1.5 28 -2.4 94 94 SW 7 11 30.36 1028 10 16.09344 0 0
5:55 am 05:55 Clear 29 -1.8 28 -2.5 95 95 SW 9 15 30.36 1028 10 16.09344 0 0
6:15 am 06:15 Clear 28 -2.1 27 -2.9 94 94 SW 7 11 30.33 1027 10 16.09344 0 0
6:35 am 06:35 Clear 28 -2.3 27 -3 95 95 SW 5 7 30.33 1027 10 16.09344 0 0
6:55 am 06:55 Clear 27 -2.6 26 -3.3 95 95 SW 5 7 30.36 1028 10 16.09344 0 0
7:15 am 07:15 Clear 27 -3 26 -3.5 96 96 SW 3 6 30.33 1027 10 16.09344 0 0
7:35 am 07:35 Sunny 27 -3 26 -3.5 96 96 Calm 30.33 1027 10 16.09344 0 0
7:55 am 07:55 Sunny 28 -2.5 26 -3.3 94 94 SSW 3 6 30.33 1027 10 16.09344 0 0
8:15 am 08:15 Sunny 28 -2.1 27 -3 94 94 WSW 3 6 30.36 1028 10 16.09344 0 0
8:35 am 08:35 Sunny 30 -1.2 28 -2.3 92 92 SW 5 7 30.33 1027 10 16.09344 0 0
8:55 am 08:55 Sunny 31 -0.7 28 -2 91 91 SW 3 6 30.33 1027 10 16.09344 0 0
9:15 am 09:15 Sunny 32 0 30 -1.2 92 92 SW 5 7 30.33 1027 10 16.09344 0 0
9:35 am 09:35 Sunny 34 1.2 31 -0.3 90 90 SW 6 9 30.33 1027 10 16.09344 0 0
9:55 am 09:55 Sunny 36 2.1 32 0 86 86 SW 5 7 30.3 1026 10 16.09344 0 0
10:15 am 10:15 Sunny 38 3.1 33 0.6 84 84 SW 5 7 30.3 1026 10 16.09344 0 0
10:35 am 10:35 Sunny 40 4.5 33 0.8 77 77 WSW 7 11 30.3 1026 10 16.09344 0 0
10:55 am 10:55 Sunny 42 5.7 34 1 72 72 WSW 8 13 30.27 1025 10 16.09344 0 0
11:15 am 11:15 Sunny 44 6.9 35 1.5 69 69 WSW 7 11 30.24 1024 10 16.09344 0 0
11:35 am 11:35 Sunny 46 7.8 35 1.4 64 64 WSW 9 15 30.21 1023 10 16.09344 0 0
11:55 am 11:55 Sunny 47 8.5 35 1.5 62 62 WSW 10 17 30.21 1023 10 16.09344 0 0
12:15 pm 12:15 Sunny 48 9 34 1.1 58 58 WSW 9 15 30.18 1022 10 16.09344 0 0
12:35 pm 12:35 Sunny 50 9.9 34 1.3 55 55 WSW 14 22 30.18 1022 10 16.09344 0 0
12:55 pm 12:55 Sunny 50 10 33 0.6 52 52 WSW 13 20 30.18 1022 10 16.09344 0 0
1:15 pm 13:15 Sunny 51 10.7 33 0.7 50 50 WSW 14 22 30.12 1020 10 16.09344 0 0
1:35 pm 13:35 Sunny 51 10.8 33 0.6 50 50 WSW 12 19 30.12 1020 10 16.09344 0 0
1:55 pm 13:55 Sunny 53 11.5 34 0.9 48 48 WSW 15 24 30.12 1020 10 16.09344 0 0
2:15 pm 14:15 Sunny 53 11.6 33 0.7 47 47 WSW 12 19 30.12 1020 10 16.09344 0 0
2:35 pm 14:35 Sunny 54 12 33 0.8 47 47 WSW 13 20 30.12 1020 10 16.09344 0 0
2:55 pm 14:55 Sunny 55 12.5 34 1 46 46 WSW 7 11 30.12 1020 10 16.09344 0 0
3:15 pm 15:15 Sunny 55 12.7 34 0.9 45 45 WSW 8 13 30.12 1020 10 16.09344 0 0
3:35 pm 15:35 Sunny 55 12.9 34 0.9 44 44 SW 7 11 30.12 1020 10 16.09344 0 0
3:55 pm 15:55 Sunny 55 13 33 0.6 43 43 WSW 6 9 30.12 1020 10 16.09344 0 0
4:15 pm 16:15 Sunny 55 12.7 33 0.6 44 44 SW 3 6 30.12 1020 10 16.09344 0 0
4:35 pm 16:35 Sunny 54 12.1 33 0.7 46 46 WSW 5 7 30.12 1020 10 16.09344 0 0
4:55 pm 16:55 Sunny 52 10.9 34 0.9 50 50 SW 3 6 30.12 1020 10 16.09344 0 0
5:15 pm 17:15 Sunny 49 9.7 34 1 55 55 SW 3 6 30.15 1021 10 16.09344 0 0
5:35 pm 17:35 Clear 48 8.9 33 0.8 57 57 Calm 30.15 1021 10 16.09344 0 0
5:55 pm 17:55 Clear 45 7.2 33 0.3 62 62 Calm 30.15 1021 10 16.09344 0 0
6:15 pm 18:15 Clear 45 7 32 0 61 61 SSW 5 7 30.18 1022 10 16.09344 0 0
6:35 pm 18:35 Clear 45 7.2 32 0 61 61 SSW 7 11 30.15 1021 10 16.09344 0 0
6:55 pm 18:55 Clear 42 5.4 31 -0.3 67 67 SSW 5 7 30.18 1022 10 16.09344 0 0
7:15 pm 19:15 Clear 41 5.1 31 -0.6 67 67 SW 3 6 30.18 1022 10 16.09344 0 0
7:35 pm 19:35 Clear 42 5.4 31 -0.5 66 66 Calm 30.18 1022 10 16.09344 0 0
7:55 pm 19:55 Clear 37 2.5 29 -1.4 76 76 Calm 30.21 1023 10 16.09344 0 0
8:15 pm 20:15 Clear 37 2.5 30 -0.9 79 79 SW 3 6 30.21 1023 10 16.09344 0 0
8:35 pm 20:35 Clear 37 2.8 29 -1.5 74 74 SW 3 6 30.21 1023 10 16.09344 0 0
8:55 pm 20:55 Clear 38 3.1 30 -1.1 74 74 SSW 3 6 30.21 1023 10 16.09344 0 0
9:15 pm 21:15 Clear 39 4 30 -0.9 71 71 SW 5 7 30.18 1022 10 16.09344 0 0
9:35 pm 21:35 Clear 40 4.6 31 -0.8 68 68 SW 3 6 30.18 1022 10 16.09344 0 0
9:55 pm 21:55 Clear 38 3.2 30 -1.2 73 73 Calm 30.21 1023 10 16.09344 0 0
10:15 pm 22:15 Clear 32 -0.1 28 -2.4 85 85 Calm 30.24 1024 10 16.09344 0 0
10:35 pm 22:35 Clear 33 0.3 28 -2.3 83 83 Calm 30.24 1024 10 16.09344 0 0
10:55 pm 22:55 Clear 31 -0.5 28 -2.5 87 87 Calm 30.24 1024 10 16.09344 0 0
11:15 pm 23:15 Clear 31 -0.5 27 -2.6 86 86 Calm 30.24 1024 10 16.09344 0 0
11:35 pm 23:35 Clear 30 -1.1 27 -2.8 88 88 W 3 6 30.24 1024 10 16.09344 0 0
11:55 pm 23:55 Clear 33 0.8 29 -1.5 85 85 W 3 6 30.21 1023 10 16.09344 0 0

Powered by AerisWeather